RH
22 26 23 21 22 21 23 24 24 20 21 28 27 25 22 20 22 33 33 29 32 38 39 47 48 50 50 50 48 43 49 51 57 61 66 62 58 51 47 46 46 48 53 58
26 26 22 21 23 24 25 26 23 24 25 28 26 27 22 22 22 24 34 34 32 33 40 53 52 52 53 48 46 46 46 45 54 60 65 64 62 53 49 46 44 45 47 54
27 26 23 23 24 25 23 26 24 30 29 25 30 22 23 27 27 29 30 33 35 37 46 53 53 52 52 51 48 44 44 44 45 54 62 66 62 56 50 46 43 44 44 52
26 23 25 27 26 24 31 26 29 34 36 31 28 22 15 21 22 27 28 34 40 40 41 47 50 51 51 49 51 44 42 42 37 42 47 52 52 51 46 40 40 40 41 46
32 28 30 34 26 24 28 30 33 37 38 35 32 33 16 22 20 19 19 23 30 40 42 48 54 49 49 49 59 51 43 42 40 41 39 39 39 40 37 35 35 37 38 41
27 28 28 27 24 24 25 31 32 39 41 54 30 32 24 20 22 21 20 18 25 34 39 41 44 47 51 52 55 53 50 46 44 44 40 41 47 43 38 42 38 39 39 41
34 33 28 25 30 30 34 36 51 56 61 45 35 38 26 21 22 23 25 22 24 29 36 40 44 49 49 53 53 49 46 49 44 49 57 56 52 51 55 66 56 52 56 52
39 52 34 25 29 36 35 37 46 52 45 38 34 40 30 24 25 26 26 24 27 30 33 39 43 44 44 47 49 45 41 41 39 39 43 46 51 42 43 45 47 48 49 59
32 34 30 27 26 30 38 43 35 41 33 44 32 30 23 24 25 27 28 29 30 30 34 36 40 40 40 43 45 45 41 39 39 36 37 37 39 37 37 36 38 45 47 42
30 41 36 32 28 30 34 31 44 46 59 54 35 33 39 29 28 28 30 31 30 30 32 34 35 36 38 40 43 43 39 39 36 35 32 34 40 41 46 49 49 46 43 43
32 36 42 42 42 37 40 41 40 45 48 78 50 38 29 32 31 31 29 27 28 29 35 36 34 36 38 37 41 42 40 36 33 32 30 31 35 39 44 48 47 45 45 45
30 37 47 39 36 34 34 35 35 81 82 65 53 56 27 28 29 31 30 28 27 27 33 35 37 36 36 39 40 40 37 34 32 31 30 32 38 43 47 51 48 44 45 42
35 42 60 50 49 45 50 44 51 69 92 84 82 57 28 28 30 33 36 32 30 31 40 39 39 38 36 37 38 38 38 37 33 32 33 35 42 40 44 48 51 49 48 47
47 42 52 81 61 56 92 86 75 96 98 67 62 58 41 36 40 39 41 39 36 36 41 42 41 39 47 58 71 74 57 44 36 34 36 39 40 39 48 52 52 51 52 51
56 96 81 73 66 67 68 72 81 97 88 93 66 60 45 44 50 49 48 47 39 44 46 55 68 75 79 76 59 42 34 35 36 37 37 40 49 59 56 57 56 55 56 53
91 99 98 96 78 76 87 74 66 63 62 67 73 69 55 52 54 61 55 50 49 48 64 75 83 89 89 77 62 54 51 47 46 46 49 50 55 58 62 62 60 56 54 52
96 100 100 94 68 83 94 60 55 54 51 57 64 66 67 70 69 82 78 72 78 83 91 92 91 90 89 84 80 72 58 56 55 55 56 60 65 65 62 60 58 58 55 51
94 97 100 97 94 98 47 48 50 70 89 83 80 84 80 88 89 83 84 89 92 91 88 86 84 85 86 88 86 71 66 64 66 65 67 70 69 68 64 60 58 56 53 52
58 90 99 98 94 65 57 68 79 83 93 81 84 76 72 65 72 94 90 90 89 88 87 89 89 87 84 84 87 81 74 70 72 74 74 74 69 66 63 62 59 56 56 54
64 65 97 100 98 84 78 70 66 94 96 74 81 84 84 70 74 82 78 75 83 88 89 89 88 83 77 80 76 76 75 74 75 75 72 67 64 64 62 58 58 56 50 43
85 99 98 96 99 95 76 66 67 99 91 83 87 88 84 84 87 86 81 78 76 75 77 75 74 80 78 74 73 74 71 71 67 64 64 64 62 60 54 51 46 42 41 41
99 99 93 96 100 95 73 62 83 92 93 94 93 88 87 89 89 88 88 85 78 77 76 76 78 75 69 68 70 70 66 58 56 54 58 56 51 45 41 40 39 38 42 48
96 93 94 92 88 87 92 93 95 94 92 87 85 83 87 86 86 87 86 81 75 72 72 73 75 72 64 61 63 68 58 57 52 51 49 45 41 37 36 39 41 43 48 56
93 93 94 94 90 91 90 91 89 88 91 91 84 83 84 86 83 77 74 72 71 68 68 70 68 65 57 49 49 50 50 48 47 45 41 40 43 44 42 42 44 50 55 60
90 79 90 93 92 94 90 89 93 93 92 90 91 90 87 79 76 74 73 69 68 64 64 61 53 48 45 40 39 37 36 37 41 43 50 54 48 54 54 51 53 56 60 60
80 88 90 91 92 91 93 90 86 86 86 78 76 72 69 68 72 67 67 63 59 59 49 46 46 45 45 43 42 39 36 38 46 53 50 50 52 55 57 63 68 62 64 66
Wind_Speed
1 5 4 3 4 3 5 9 13 10 4 10 12 20 18 13 15 16 15 14 12 13 12 11 11 9 8 6 4 1 1 3 3 1 1 1 3 3 4 5 9 9 9 11
5 3 2 1 2 5 7 11 10 5 2 9 14 25 15 7 11 13 14 14 13 12 13 12 12 11 9 8 5 4 2 1 2 3 1 2 2 3 4 4 6 8 9 9
5 4 2 3 4 7 8 8 10 9 16 9 10 11 5 3 3 5 9 10 11 13 15 14 14 12 10 9 8 5 3 1 1 2 1 2 1 1 1 4 5 8 9 9
4 4 3 5 7 3 10 4 6 12 11 6 2 7 4 3 4 7 9 10 10 12 13 13 13 12 12 10 7 5 4 3 1 2 1 2 2 1 2 3 3 4 7 8
1 4 5 6 4 2 4 4 9 10 9 10 8 5 2 4 1 5 9 11 11 12 13 13 12 12 11 9 8 7 6 4 2 1 2 1 1 2 2 1 3 4 5 8
4 1 3 3 1 5 10 9 12 4 5 5 4 3 6 6 5 5 6 7 9 11 12 12 12 11 10 9 9 8 7 6 4 2 2 2 2 1 0 3 2 3 4 4
5 5 2 2 5 5 6 9 5 4 5 7 4 4 11 10 3 4 5 5 6 10 11 11 13 12 12 13 11 9 9 7 5 4 4 2 3 2 3 2 3 3 4 4
4 4 7 8 3 4 3 3 4 8 11 15 6 7 2 3 2 2 2 3 5 8 10 12 12 12 12 12 11 10 9 8 7 6 5 5 4 2 2 2 2 3 3 2
4 5 4 0 1 3 4 5 4 7 12 7 6 8 11 0 3 5 5 6 8 8 8 9 9 9 9 10 11 10 9 8 8 7 6 5 4 3 2 3 1 1 2 3
2 9 2 4 2 4 6 3 4 4 6 11 10 17 7 3 2 1 5 8 9 7 6 6 6 7 6 7 8 9 9 9 8 7 6 5 4 4 3 2 1 1 1 2
3 5 3 4 10 5 5 5 6 3 6 5 10 5 5 4 2 5 8 7 8 9 10 8 5 3 2 4 6 8 9 8 7 7 7 6 5 5 4 3 2 2 2 3
3 5 9 17 5 3 5 10 11 5 5 8 9 13 14 6 5 6 11 10 8 8 8 4 3 3 4 3 0 5 6 7 5 5 5 5 6 5 4 3 2 3 5 5
5 5 8 7 2 2 4 4 4 11 7 10 9 8 4 3 9 15 17 9 8 6 5 4 4 6 7 7 4 2 1 3 4 5 5 5 5 5 4 3 3 4 5 6
4 6 12 13 19 13 6 8 12 10 5 10 16 25 22 19 16 15 17 17 10 4 4 5 7 8 9 10 8 6 3 1 3 3 4 4 4 5 3 4 4 4 5 6
4 7 12 19 23 22 24 21 20 15 20 13 24 24 20 19 15 13 14 16 10 9 7 7 7 6 7 6 4 3 3 3 3 5 5 5 4 3 4 5 5 5 5 6
2 4 3 11 20 20 27 24 23 24 23 23 24 28 12 12 13 16 16 14 10 10 9 8 7 7 7 7 5 3 1 1 2 3 4 2 4 4 4 5 6 6 6 6
6 4 4 17 13 10 12 22 23 18 9 9 12 6 13 13 13 14 13 13 12 9 8 8 8 7 7 7 7 5 3 2 3 2 3 4 5 5 6 6 6 6 8 7
10 6 3 10 3 9 3 8 6 12 13 13 10 13 13 13 10 10 11 10 9 8 8 7 6 5 4 5 5 6 6 4 4 4 3 4 6 7 6 6 6 7 7 8
18 7 5 5 7 12 13 9 7 7 7 13 12 13 12 15 2 9 10 9 7 7 5 4 4 5 4 4 5 5 5 5 6 7 6 5 6 7 7 7 7 7 7 9
4 12 6 3 6 8 7 10 13 8 4 12 11 11 12 13 4 7 12 9 8 7 6 7 7 6 6 6 7 7 7 6 7 6 6 6 6 8 9 8 7 7 8 10
3 3 10 11 6 1 12 16 9 4 6 9 10 10 11 7 6 10 11 10 9 8 8 8 8 7 7 7 7 7 7 8 7 7 8 8 8 9 9 8 8 9 9 9
3 4 6 5 7 7 20 4 5 5 5 8 8 10 10 10 10 11 11 10 10 11 10 9 9 9 8 7 7 9 10 9 8 9 9 10 9 8 7 9 9 9 9 8
4 4 2 5 4 7 10 10 8 7 6 9 9 10 10 11 11 11 11 11 10 11 10 9 9 11 10 9 7 10 11 10 10 11 11 11 11 10 10 10 10 8 8 7
4 9 4 5 4 7 8 7 8 7 6 7 8 9 9 9 10 11 11 11 11 11 12 10 11 12 12 11 10 11 11 11 11 12 12 10 10 10 9 8 8 7 7 7
4 8 5 5 5 5 7 9 9 8 7 8 7 7 9 11 12 12 12 12 11 11 11 11 12 12 13 13 13 12 12 11 12 12 10 9 9 9 9 9 7 7 7 8
6 5 4 4 4 4 4 6 9 9 11 10 11 12 11 11 12 13 11 11 11 12 13 12 13 14 14 14 13 13 12 12 11 10 9 8 8 7 7 7 7 14 18 20
Wind_Direction
78 260 347 22 12 345 314 302 303 315 32 302 272 286 285 272 228 224 237 233 221 211 198 177 181 180 183 191 198 164 2 11 340 321 265 336 38 43 49 37 33 22 20 15
224 278 64 55 293 287 292 300 311 353 19 308 303 297 291 282 247 233 227 232 228 204 185 176 186 187 193 190 188 191 171 21 8 332 9 328 6 50 45 37 38 29 29 23
292 62 138 240 264 289 296 297 324 315 318 270 291 267 183 149 217 226 234 239 223 204 187 190 192 194 190 192 191 188 165 139 11 339 256 221 164 182 56 32 29 27 24 26
293 122 245 262 276 282 300 54 301 302 321 310 5 297 268 165 231 205 202 200 200 195 190 190 192 193 194 193 176 175 175 177 134 323 271 304 330 9 57 38 41 46 37 30
76 215 231 259 281 189 321 323 299 304 285 304 182 251 330 173 228 239 212 194 193 190 191 188 192 193 193 179 178 175 178 174 159 153 352 314 98 98 122 88 71 53 44 40
282 70 255 319 265 238 312 283 256 266 265 245 118 268 283 8 22 5 349 208 188 185 187 188 185 184 185 173 185 181 180 178 164 138 71 53 72 45 134 42 45 52 47 35
176 208 150 239 263 195 251 306 300 244 221 281 143 253 265 324 348 312 307 287 189 189 193 187 186 187 185 189 192 186 185 178 164 156 136 111 124 85 107 41 41 38 36 23
279 251 192 163 269 323 314 302 280 299 306 305 154 236 221 190 152 319 243 264 198 216 206 197 197 194 194 194 193 190 186 185 183 177 173 163 177 157 128 73 90 62 47 40
273 239 131 176 313 293 131 224 31 286 269 273 228 233 260 171 147 231 240 222 223 215 212 211 204 205 202 198 196 194 189 192 192 187 180 178 165 163 137 139 116 62 20 344
21 281 161 110 194 205 254 7 234 200 275 278 274 303 303 121 93 40 250 247 240 216 206 195 200 204 210 205 194 192 195 193 187 192 187 176 164 155 156 203 209 353 344 336
288 229 162 174 201 210 180 215 214 317 264 260 303 302 78 23 355 335 327 309 253 208 209 194 171 159 221 220 195 196 188 189 185 193 190 176 173 181 197 203 207 261 296 307
199 297 267 275 79 7 304 269 219 207 203 244 286 277 282 7 78 339 319 318 292 226 207 157 110 62 50 26 80 225 193 161 180 197 194 190 186 199 204 215 249 291 299 304
170 221 298 273 127 90 268 259 256 247 282 241 258 261 112 213 267 337 323 295 296 223 126 107 71 50 40 33 23 35 30 97 178 186 199 204 214 210 221 224 263 277 302 305
170 249 243 258 282 301 251 229 230 219 229 259 238 276 286 292 338 337 349 343 309 140 119 75 61 45 36 32 17 14 5 10 192 192 216 214 230 243 254 269 285 303 301 300
210 236 246 250 262 275 271 267 250 217 230 240 276 276 290 335 7 358 349 346 337 100 87 59 44 39 37 32 25 24 57 91 156 200 210 227 223 255 267 289 292 293 285 288
182 250 250 259 262 260 265 263 262 256 254 245 253 270 33 2 13 22 13 6 23 55 44 34 31 31 29 15 6 13 48 169 203 221 228 231 237 247 263 280 288 293 287 277
185 213 188 271 287 300 272 256 244 246 251 300 261 355 356 5 26 30 12 30 30 29 29 27 28 23 17 11 359 351 327 232 222 235 239 236 257 267 269 273 274 277 279 280
202 199 188 276 244 248 289 40 8 84 53 21 8 13 5 358 75 54 38 30 24 16 15 21 17 22 23 10 1 343 335 312 288 256 257 269 268 270 271 273 276 280 276 275
226 188 232 240 224 289 298 32 26 353 76 26 4 2 353 335 276 69 35 21 12 2 2 4 359 348 350 6 341 319 305 298 296 292 278 261 261 269 270 271 275 278 284 270
270 251 213 184 252 263 65 339 350 307 167 19 7 4 350 345 322 36 4 6 360 359 354 354 347 331 333 358 337 324 314 305 293 290 286 278 273 272 274 277 283 284 271 271
191 212 228 233 255 177 352 313 310 208 27 11 0 4 359 4 357 339 349 355 356 347 348 351 342 335 327 329 326 311 303 296 303 294 283 280 273 274 279 285 281 274 271 269
229 264 214 216 222 234 356 39 357 5 11 12 358 3 354 344 344 346 344 347 349 345 343 342 332 323 320 312 310 307 304 309 302 294 287 284 282 280 281 278 276 272 269 267
232 346 340 6 61 86 47 60 57 13 12 10 349 350 352 347 344 342 336 337 339 340 338 336 326 315 314 310 302 300 305 312 303 294 289 288 284 279 275 273 272 271 261 254
73 3 87 166 73 86 74 71 41 28 12 353 350 344 344 331 327 332 333 336 336 336 328 328 322 314 311 316 314 302 301 300 294 288 288 290 285 279 271 267 262 262 260 257
356 336 354 100 64 152 92 58 23 3 357 355 340 332 336 332 331 329 326 326 325 321 320 321 314 311 311 313 309 308 306 301 292 289 285 283 279 275 275 269 268 263 256 252
2 18 354 47 49 304 37 43 22 6 350 350 338 337 338 330 325 325 321 322 320 320 324 317 314 313 312 310 306 305 304 298 293 289 284 278 279 273 270 271 268 263 263 257